New Braunfels, TX

5:35 PM CDT on April 28, 2017 (GMT -0500)
New Braunfels Municipal

Weather History for KBAZ - January, 2013

Change the Weather History Date:

Wednesday, January 16, 2013

  Actual Average (KRND) Record (KRND)
Temperature  
Mean Temperature 42 °F -  
Max Temperature 55 °F 61 °F 77 °F (2012)
Min Temperature 28 °F 42 °F 28 °F (2013)
Degree Days  
Heating Degree Days 24    
Moisture  
Dew Point 19 °F    
Average Humidity 46    
Maximum Humidity 72    
Minimum Humidity 17    
Precipitation  
Precipitation 0.00 in - - ()
Sea Level Pressure  
Sea Level Pressure 30.27 in    
Wind  
Wind Speed 8 mph (NW)    
Max Wind Speed 16 mph    
Max Gust Speed 22 mph    
Visibility 10 miles    
Events      
Averages and records for this station are not official NWS values.
T = Trace of Precipitation, MM = Missing Value Source: NWS Daily Summary

Daily Weather History Graph

Daily Weather History Graph

Search for Another Location

Airport or City:

Trip Planner

Search our weather history database for the weather conditions in past years. The results will help you decide how hot, cold, wet, or windy it might be!

Date:

Astronomy

Jan. 16, 2013 Rise Set
Actual Time 7:27 AM CST 5:56 PM CST
Civil Twilight 7:02 AM CST 6:22 PM CST
Nautical Twilight 6:33 AM CST 6:51 PM CST
Astronomical Twilight 6:04 AM CST 7:20 PM CST
Moon 10:33 AM CST (1/16) 11:18 PM CST (1/16)
Length of Visible Light 11h 19m
Length of Day
10h 28m
Waxing Crescent, 28% of the Moon is Illuminated
Jan 16
Waxing Crescent
Jan 18
First Quarter
Jan 26
Full
Feb 3
Last Quarter
Feb 10
New

Hourly Weather History & Observations

Time (CST) Temp. Windchill Dew Point Humidity Pressure Visibility Wind Dir Wind Speed Gust Speed Precip Events Conditions
12:51 AM 35.1 °F 26.9 °F 21.9 °F 59% 30.26 in 10.0 mi North 11.5 mph - N/A   Clear
1:51 AM 33.1 °F 24.9 °F 21.0 °F 61% 30.27 in 10.0 mi NNW 10.4 mph - N/A   Clear
2:51 AM 30.9 °F 24.3 °F 19.0 °F 61% 30.26 in 10.0 mi North 6.9 mph - N/A   Clear
3:51 AM 30.9 °F 25.2 °F 18.0 °F 59% 30.27 in 10.0 mi NNW 5.8 mph - N/A   Clear
4:51 AM 30.9 °F 24.3 °F 19.0 °F 61% 30.29 in 10.0 mi NW 6.9 mph - N/A   Clear
5:51 AM 32.0 °F 23.6 °F 19.0 °F 59% 30.29 in 10.0 mi NNW 10.4 mph - N/A   Clear
6:51 AM 28.9 °F - 18.0 °F 64% 30.31 in 10.0 mi Calm Calm - N/A   Clear
7:51 AM 30.0 °F - 19.0 °F 64% 30.33 in 10.0 mi Calm Calm - N/A   Clear
8:51 AM 35.1 °F - 21.9 °F 59% 30.35 in 10.0 mi Calm Calm - N/A   Clear
9:51 AM 41.0 °F 37.1 °F 21.9 °F 47% 30.35 in 10.0 mi NW 5.8 mph - N/A   Clear
10:51 AM 46.9 °F - 21.0 °F 36% 30.33 in 10.0 mi NW 12.7 mph 18.4 mph N/A   Clear
11:51 AM 51.1 °F - 21.0 °F 31% 30.29 in 10.0 mi NNW 10.4 mph 18.4 mph N/A   Clear
12:51 PM 53.1 °F - 19.0 °F 26% 30.25 in 10.0 mi WNW 13.8 mph 21.9 mph N/A   Clear
1:51 PM 54.0 °F - 18.0 °F 24% 30.22 in 10.0 mi WNW 15.0 mph 20.7 mph N/A   Clear
2:51 PM 55.0 °F - 17.1 °F 23% 30.19 in 10.0 mi WNW 9.2 mph 20.7 mph N/A   Clear
3:51 PM 55.0 °F - 10.9 °F 17% 30.19 in 10.0 mi NNW 16.1 mph - N/A   Clear
4:51 PM 53.1 °F - 12.9 °F 20% 30.22 in 10.0 mi NNW 15.0 mph - N/A   Clear
5:51 PM 46.9 °F - 14.0 °F 27% 30.23 in 10.0 mi NNW 6.9 mph - N/A   Clear
6:51 PM 41.0 °F 39.0 °F 15.1 °F 35% 30.25 in 10.0 mi NNE 3.5 mph - N/A   Clear
7:51 PM 43.0 °F - 14.0 °F 31% 30.27 in 10.0 mi Calm Calm - N/A   Clear
8:51 PM 37.9 °F 34.4 °F 19.0 °F 47% 30.28 in 10.0 mi West 4.6 mph - N/A   Clear
9:51 PM 33.1 °F 27.7 °F 21.9 °F 64% 30.28 in 10.0 mi WNW 5.8 mph - N/A   Clear
10:51 PM 32.0 °F 28.7 °F 23.0 °F 69% 30.29 in 10.0 mi WNW 3.5 mph - N/A   Clear
11:51 PM 30.9 °F 26.2 °F 23.0 °F 72% 30.30 in 10.0 mi NW 4.6 mph - N/A   Clear